FW0655 Weather Reports


time (UTC)temp
C
wind
direction
speed
KPH
gust
KPH
rain 1hr
cm
rain 24hr
cm
rain mn
cm
humidity
%
barometer
mb
20260506134515 12 211 1.6 4.8 0.23 0.56 0.53 92 1004.5
20260506133015 12 211 0.0 3.2 0.25 0.51 0.48 92 1004.7
20260506131519 11 27 0.0 1.6 0.30 0.48 0.46 92 1005.2
20260506130012 11 27 0.0 3.2 0.25 0.41 0.38 92 1005.7
20260506124511 11 27 0.0 3.2 0.20 0.33 0.30 92 1005.4
20260506123010 11 27 0.0 3.2 0.10 0.23 0.20 92 1005.1
20260506121508 11 27 0.0 6.4 0.05 0.15 0.13 92 1005.0
20260506120012 11 30 1.6 3.2 0.05 0.15 0.13 91 1004.8
20260506114508 11 30 0.0 3.2 0.03 0.18 0.10 91 1005.0
20260506113006 11 30 0.0 3.2 0.03 0.18 0.10 91 1005.4
20260506111510 10 30 0.0 4.8 0.03 0.15 0.08 91 1005.5
20260506110009 10 28 1.6 8.0 0.03 0.15 0.08 91 1005.2
20260506104504 11 59 3.2 4.8 0.03 0.15 0.08 90 1005.4
20260506103003 11 130 0.0 3.2 0.03 0.15 0.08 89 1005.5
20260506101501 11 130 0.0 1.6 0.00 0.13 0.05 89 1005.1
20260506100003 11 130 0.0 1.6 0.03 0.13 0.05 89 1004.9
20260506094603 11 130 0.0 3.2 0.03 0.13 0.05 88 1005.1
20260506093101 11 130 0.0 3.2 0.05 0.13 0.05 88 1005.1
20260506091557 11 130 0.0 3.2 0.05 0.13 0.05 87 1005.1
20260506090110 11 130 0.0 3.2 0.03 0.10 0.03 87 1005.4
20260506084616 11 130 0.0 3.2 0.03 0.10 0.03 86 1005.6
20260506083054 11 130 0.0 4.8 0.00 0.08 0.00 85 1005.7
20260506081600 11 69 0.0 4.8 0.00 0.08 0.00 85 1005.8
20260506073052 11 66 0.0 1.6 0.00 0.08 0.00 85 1005.7
20260506071551 11 66 0.0 3.2 0.00 0.08 0.00 85 1005.7
20260506061549 12 65 0.0 1.6 0.00 0.08 0.00 84 1006.1
20260506044533 12 62 0.0 1.6 0.00 0.08 0.00 81 1007.3
20260506043032 12 62 0.0 0.0 0.00 0.08 0.00 81 1007.4
20260506041546 12 62 0.0 3.2 0.00 0.08 0.00 80 1007.2
20260506040029 12 62 1.6 4.8 0.00 0.08 0.00 79 1007.5
20260506034536 13 43 0.0 3.2 0.00 0.08 0.08 78 1007.5
20260506033025 13 43 3.2 9.7 0.00 0.08 0.08 78 1008.0
20260506031523 13 42 1.6 6.4 0.00 0.08 0.08 77 1007.9
20260506030023 13 67 0.0 16.1 0.00 0.08 0.08 77 1007.8
20260506024518 14 25 4.8 12.9 0.00 0.08 0.08 78 1007.7
20260506023017 15 12 9.7 19.3 0.00 0.08 0.08 80 1007.5
20260506021514 15 18 3.2 6.4 0.00 0.08 0.08 79 1007.1
20260506020012 16 18 0.0 6.4 0.00 0.08 0.08 79 1007.1
20260506014510 16 5 4.8 9.7 0.00 0.08 0.08 80 1006.6
20260506013023 16 351 0.0 6.4 0.00 0.08 0.08 84 1006.6
20260506011521 16 331 1.6 4.8 0.00 0.08 0.08 85 1006.2
20260506010009 16 331 3.2 9.7 0.00 0.08 0.08 83 1006.0
20260506004506 16 157 8.0 12.9 0.00 0.08 0.08 82 1005.5
20260506003005 17 181 3.2 4.8 0.00 0.08 0.08 82 1005.3
20260506001505 17 181 0.0 4.8 0.00 0.08 0.08 81 1005.2
20260506000004 17 179 3.2 4.8 0.00 0.08 0.08 79 1005.1
20260505234504 17 179 0.0 1.6 0.00 0.08 0.08 78 1005.2
20260505233003 18 179 1.6 4.8 0.00 0.08 0.08 78 1005.3
20260505231503 18 179 0.0 1.6 0.00 0.08 0.08 78 1005.2
20260505230005 18 179 0.0 1.6 0.00 0.08 0.08 77 1005.1
20260505224506 18 179 3.2 4.8 0.00 0.08 0.08 77 1005.1
20260505223001 18 179 1.6 6.4 0.00 0.08 0.08 75 1005.1
20260505221502 18 264 3.2 8.0 0.00 0.08 0.08 75 1004.7
20260505220104 18 188 6.4 9.7 0.00 0.08 0.08 75 1005.0
20260505214610 18 155 3.2 8.0 0.00 0.08 0.08 74 1004.3
20260505213058 18 176 1.6 6.4 0.00 0.08 0.08 75 1004.0
20260505211604 18 202 3.2 8.0 0.00 0.08 0.08 78 1004.1
20260505210106 17 178 4.8 11.3 0.00 0.08 0.08 80 1004.0
20260505204604 17 182 4.8 14.5 0.00 0.08 0.08 81 1004.5
20260505203107 17 194 6.4 12.9 0.03 0.08 0.08 82 1004.6
20260505201555 17 208 4.8 8.0 0.03 0.08 0.08 81 1004.7
20260505200108 17 185 3.2 12.9 0.03 0.08 0.08 79 1004.4
20260505194554 17 305 11.3 40.2 0.03 0.08 0.08 74 1004.9
20260505193101 25 250 11.3 25.7 0.00 0.05 0.05 35 1003.2
20260505191557 26 240 8.0 25.7 0.00 0.05 0.05 33 1002.3
20260505190047 26 213 17.7 33.8 0.00 0.05 0.05 35 1002.3
20260505184543 25 222 6.4 25.7 0.00 0.05 0.05 39 1002.8
20260505183043 24 252 12.9 22.5 0.00 0.05 0.05 42 1002.9
20260505181546 23 223 4.8 25.7 0.00 0.05 0.05 52 1003.5
20260505180036 22 209 9.7 24.1 0.00 0.05 0.05 52 1003.8
20260505174536 23 254 6.4 17.7 0.00 0.05 0.05 44 1004.1
20260505173034 23 212 9.7 24.1 0.00 0.05 0.05 45 1004.0
20260505171534 23 175 16.1 35.4 0.00 0.05 0.05 44 1004.1
20260505170133 24 248 9.7 32.2 0.00 0.05 0.05 44 1004.0
20260505164533 24 199 12.9 27.4 0.00 0.05 0.05 43 1003.7
20260505163031 24 215 8.0 22.5 0.00 0.05 0.05 43 1003.9
20260505161632 24 189 16.1 33.8 0.00 0.05 0.05 42 1004.0
20260505153025 23 219 29.0 41.8 0.00 0.05 0.05 42 1004.2
20260505151523 23 194 11.3 19.3 0.00 0.05 0.05 43 1004.3